DELTA 1 DEB, 10830

Orbit data source: Space-Track

DELTA 1 DEB, 10830 is space debris in SSO originally from a launch on Thu, 29 Jul 1976 UTC launched from the Air Force Western Test Range (AFWTR). Debris objects in space refer to the collection of defunct objects orbiting the Earth. Examples of debris include non-operational satellites, rocket bodies, and fragments generated from explosions, collisions, or faulty payload assembly.

Loading next visibility...
Identifier
10830, 1976-077CA
Orbit
SSO
Country
Flag of USUS
Related business
Manufacturer
Unknown
Mission
Spacecraft
Bus & Motor
Unknown
Mass
Unknown
Launch date (UTC)
1976-07-29 (50 years ago)
Launch vehicle
Unknown
Launch site
Air Force Western Test Range (AFWTR)
Object type
Payload
Rocket body
Debris
Shape & HBR
Unknown shape, 0.2 m
Radar Cross Section
Small (<0.1 m²)

Expand to show TLE details & history
Last TLE update: 13 hours ago

TLE from 13 hours ago
0 DELTA 1 DEB
1 10830U 76077CA  26118.75114832 -.00000005  00000-0  32285-3 0  9997
2 10830 101.9151 224.2768 0088006 291.5384 229.9021 12.28442349230545
Epoch: 2026-04-28T18:01Z
TLE epoch observation values (Epoch: 2026-04-28T18:01:39.214Z)
Latitude
18.89252°
Longitude
-78.73745°
Altitude
1,603.385 km
Speed
7.049 km/s
True Right ascension
03h 13m 35s
True Declination
18° 47' 55"
Sunlit
Object was in daylight at epoch
Visualization orbit readout
Latitude
Unknown
Longitude
Unknown
Altitude
Unknown
Speed
Unknown
Apparent Right ascension
Unknown
Apparent Declination
Unknown
Sunlit
N/A
Visualization observer readout
Local Sidereal Time
14:44:10
Azimuth
Unknown
Elevation
Unknown
Doppler factor
Unknown
Orbital elements
Apogee altitude
1,623.369 km
Perigee altitude
1,483.762 km
Semi-major axis
7,931.703 km
Eccentricity
0.0088
Inclination
101.9151°
RAAN
224.2768°
Arg. of periapsis
291.5384°
True anomaly
229.13612°
Mean anomaly
229.9021°
Eccentric anomaly
229.51857°
Mean motion
3.07251 °/min
Orbital period
117.17 mins
BSTAR
0.00032285
Loading maneuver chart data...
Computing Atmospheric mass density...
Loading historical data...
Loading historical data...
Loading historical data...
Loading historical data...
Loading historical data...
Loading historical data...
Loading historical data...

Documentation

Showing up to 5 results
|